Lid_Strength_Index
14 13 14 15 15 15 17 14 16 14 14 12 11 11 11 11 11 12 12 12 12 11 12 11 11 11 11 11 11 11 12 12 12 12 12 12 12 12 12 11 11 11 11 11
16 13 13 15 14 14 13 13 13 13 14 13 12 11 11 11 11 12 12 11 11 10 10 11 11 11 11 11 11 11 12 12 12 12 12 12 12 12 12 11 11 11 11 11
18 14 15 18 16 15 14 13 13 15 13 12 12 11 11 10 11 11 11 11 11 10 10 11 10 10 11 11 12 12 12 12 12 12 12 12 12 12 12 12 11 11 12 12
17 15 20 16 15 15 14 14 14 13 12 12 12 12 11 10 10 10 10 10 10 10 10 10 10 10 11 12 12 12 12 13 12 12 12 12 12 12 12 11 12 12 12 11
17 17 15 14 14 14 14 14 12 12 12 11 11 10 10 10 10 9 9 10 10 10 10 11 11 11 11 12 12 13 13 13 12 12 12 12 12 12 11 11 11 11 11 10
15 18 21 14 11 10 11 16 11 11 11 10 10 12 8 9 9 9 8 8 9 9 11 11 12 12 12 12 13 13 13 13 12 12 12 12 11 11 11 11 11 10 10 9
15 17 15 11 10 9 16 14 9 8 9 11 10 8 8 8 8 7 7 9 9 10 12 13 14 13 12 13 13 13 12 12 12 11 11 11 10 10 10 10 9 9 9 9
16 18 20 9 9 12 10 8 8 8 8 10 8 9 8 8 8 9 11 11 12 13 15 18 18 15 13 13 12 12 12 12 11 11 11 10 10 9 9 9 9 9 9 9
13 14 10 7 7 7 7 8 7 8 7 10 10 9 8 8 9 9 10 13 15 14 16 18 17 16 14 13 13 12 12 12 12 11 11 10 10 9 9 9 9 9 9 9
13 11 10 9 8 8 7 7 7 8 8 8 9 8 8 8 10 12 14 15 16 17 17 17 18 17 17 15 13 13 13 12 11 11 11 10 9 9 9 9 9 10 10 10
12 11 10 10 9 8 8 7 8 7 8 8 8 8 8 9 10 12 14 16 17 17 17 17 18 17 17 16 15 14 13 13 12 11 11 11 10 9 9 9 9 10 9 9
13 10 10 9 8 7 8 8 7 8 8 8 8 8 8 9 10 12 14 16 18 18 19 18 18 18 17 18 16 14 13 12 11 11 10 10 10 10 9 8 8 7 7 7
11 9 9 8 8 7 8 7 7 7 7 9 10 9 9 11 12 12 15 17 17 17 18 19 18 18 17 17 17 14 13 12 11 11 10 10 10 10 10 9 7 7 7 7
10 11 10 8 9 9 8 7 7 9 10 10 11 11 12 13 11 13 15 16 17 19 19 18 18 18 16 16 16 15 13 11 10 10 10 10 10 9 9 9 9 8 7 7
14 13 11 10 9 10 9 10 10 11 13 14 13 13 13 14 15 16 17 17 16 17 18 19 19 17 16 18 16 15 13 11 10 10 10 9 9 9 9 8 8 8 7 6
17 14 12 12 11 12 12 12 11 13 13 14 15 16 16 16 16 16 17 16 15 14 18 19 18 16 17 18 16 14 13 11 9 9 9 10 9 9 9 9 8 8 8 8
15 16 14 14 14 14 14 14 14 14 15 16 16 16 15 15 15 15 16 16 16 16 16 16 16 16 16 15 14 12 12 11 10 10 10 10 10 10 9 9 9 9 8 8
14 14 14 14 15 15 15 15 15 15 16 15 15 15 16 16 17 17 17 16 15 15 14 14 14 13 13 13 13 12 12 12 11 11 11 10 10 10 10 10 10 10 9 9
14 15 15 15 15 15 16 16 16 16 16 15 15 16 15 16 16 16 16 16 15 16 15 13 12 11 12 12 11 11 11 11 11 11 11 11 12 12 11 11 11 11 10 10
15 14 14 14 15 15 16 16 15 16 15 15 15 16 16 16 16 16 16 16 15 15 14 13 12 13 12 12 11 11 10 12 14 14 14 13 13 13 13 12 12 12 11 11
16 15 15 15 15 15 15 15 15 16 15 15 16 16 17 16 16 16 16 17 15 15 13 13 13 13 13 12 11 13 14 15 15 15 16 16 16 15 15 14 14 13 12 12
17 17 16 15 15 16 15 16 16 16 16 16 16 16 17 17 16 16 16 16 15 13 14 13 13 13 11 11 14 15 15 16 16 16 16 16 16 16 15 15 14 13 13 12
19 18 18 18 17 16 16 16 16 16 17 17 16 17 17 17 16 17 18 15 14 14 13 13 13 11 10 15 15 16 16 17 16 16 16 16 16 15 14 14 13 12 12 11
20 20 20 18 17 18 19 18 17 17 17 17 16 17 17 18 17 16 15 15 14 13 13 14 12 11 10 14 15 16 17 16 16 16 16 14 15 15 15 14 15 14 13 11
20 21 20 19 19 18 18 18 18 17 17 17 17 17 16 16 17 15 15 15 14 14 15 13 12 12 14 15 16 16 16 15 15 15 15 16 16 15 15 15 15 15 14 13
20 20 19 19 18 17 17 17 18 17 17 17 17 16 16 15 15 14 15 14 14 14 15 15 15 14 14 15 16 15 15 16 15 16 15 15 15 16 16 16 15 15 14 14
20 18 19 19 18 18 18 16 17 18 17 17 17 16 15 15 15 14 14 15 15 15 15 15 15 15 14 15 15 16 15 15 15 15 14 15 16 16 16 16 15 15 14 14